Altus AFB, OK

11:45 PM CST on December 17, 2017 (GMT -0600)
Altus Air Force Base

Weather History for KLTS - October, 2014

Change the Weather History Date:

Friday, October 24, 2014

  Actual Average Record
Temperature  
Mean Temperature 72 °F -  
Max Temperature 90 °F 70 °F 91 °F (2003)
Min Temperature 55 °F 47 °F 30 °F (2005)
Cooling Degree Days 8    
Growing Degree Days 22 (Base 50)    
Moisture  
Dew Point 58 °F    
Average Humidity 78    
Maximum Humidity 100    
Minimum Humidity 34    
Precipitation  
Precipitation 0.00 in - - ()
Sea Level Pressure  
Sea Level Pressure 30.04 in    
Wind  
Wind Speed 6 mph (SE)    
Max Wind Speed 15 mph    
Max Gust Speed 20 mph    
Visibility 9 miles    
Events      
Averages and records for this station are not official NWS values.
T = Trace of Precipitation, MM = Missing Value Source: NWS Daily Summary

Daily Weather History Graph

Daily Weather History Graph

Search for Another Location

Airport or City:

Trip Planner

Search our weather history database for the weather conditions in past years. The results will help you decide how hot, cold, wet, or windy it might be!

Date:

Astronomy

Oct. 24, 2014 Rise Set
Actual Time 7:50 AM CDT 6:51 PM CDT
Civil Twilight 7:24 AM CDT 7:17 PM CDT
Nautical Twilight 6:55 AM CDT 7:46 PM CDT
Astronomical Twilight 6:25 AM CDT 8:16 PM CDT
Moon 8:29 AM CDT (10/24) 7:34 PM CDT (10/24)
Length of Visible Light 11h 52m
Length of Day
11h 01m
New Moon, 1% of the Moon is Illuminated
Oct 24
New Moon
Oct 30
First Quarter
Nov 6
Full
Nov 14
Last Quarter
Nov 22
New

Hourly Weather History & Observations

Time (CDT) Temp. Heat Index Dew Point Humidity Pressure Visibility Wind Dir Wind Speed Gust Speed Precip Events Conditions
12:58 AM 59.0 °F - 59.0 °F 100% 30.05 in 10.0 mi East 6.9 mph - N/A   Clear
1:58 AM 59.4 °F - 59.4 °F 100% 30.05 in 10.0 mi East 3.5 mph - N/A   Clear
2:58 AM 57.6 °F - 57.4 °F 99% 30.06 in 10.0 mi ESE 3.5 mph - N/A   Clear
3:58 AM 57.0 °F - 57.0 °F 100% 30.04 in 10.0 mi East 4.6 mph - N/A   Clear
4:18 AM 55.4 °F - 55.4 °F 100% 30.08 in 10.0 mi ESE 4.6 mph - N/A   Clear
4:58 AM 57.2 °F - 57.2 °F 100% 30.04 in 9.0 mi ESE 4.6 mph - N/A   Clear
5:53 AM 57.2 °F - 57.2 °F 100% 30.08 in 6.0 mi ESE 3.5 mph - N/A   Clear
5:58 AM 56.7 °F - 56.7 °F 100% 30.05 in 6.0 mi ESE 3.5 mph - N/A   Clear
6:33 AM 55.4 °F - 55.4 °F 100% 30.07 in 6.0 mi SE 5.8 mph - N/A   Clear
6:58 AM 55.6 °F - 55.6 °F 100% 30.05 in 6.0 mi ESE 4.6 mph - N/A   Clear
7:23 AM 55.4 °F - 55.4 °F 100% 30.08 in 6.0 mi ESE 5.8 mph - N/A   Clear
7:53 AM 55.4 °F - 55.4 °F 100% 30.08 in 6.0 mi ESE 5.8 mph - N/A   Clear
7:58 AM 55.9 °F - 55.9 °F 100% 30.06 in 5.0 mi SE 4.6 mph - N/A   Clear
8:58 AM 59.9 °F - 59.7 °F 99% 30.08 in 7.0 mi ESE 5.8 mph - N/A   Clear
9:58 AM 65.5 °F - 63.9 °F 94% 30.09 in 10.0 mi SSE 5.8 mph - N/A   Clear
10:58 AM 72.7 °F - 63.7 °F 73% 30.07 in 10.0 mi SSW 6.9 mph - N/A   Clear
11:58 AM 77.0 °F - 63.3 °F 63% 30.07 in 10.0 mi South 6.9 mph - N/A   Clear
12:58 PM 82.2 °F 83.0 °F 61.7 °F 50% 30.06 in 10.0 mi SSW 8.1 mph - N/A   Clear
1:58 PM 86.2 °F 85.9 °F 59.9 °F 41% 30.02 in 10.0 mi SW 6.9 mph - N/A   Clear
2:58 PM 89.6 °F 88.6 °F 58.3 °F 35% 30.00 in 10.0 mi SSW 10.4 mph - N/A   Clear
3:58 PM 90.1 °F 89.1 °F 58.6 °F 34% 29.99 in 10.0 mi South 15.0 mph 18.4 mph N/A   Clear
4:58 PM 89.6 °F 88.4 °F 57.9 °F 34% 29.98 in 10.0 mi SSW 12.7 mph 19.6 mph N/A   Clear
5:58 PM 88.0 °F 87.1 °F 58.5 °F 37% 29.98 in 10.0 mi South 13.8 mph - N/A   Clear
6:58 PM 81.0 °F 81.2 °F 58.5 °F 46% 29.99 in 10.0 mi South 8.1 mph - N/A   Clear
7:58 PM 72.5 °F - 57.7 °F 60% 30.01 in 10.0 mi SSE 5.8 mph - N/A   Clear
8:58 PM 69.1 °F - 57.6 °F 67% 30.02 in 10.0 mi ESE 4.6 mph - N/A   Clear
9:58 PM 67.5 °F - 58.3 °F 72% 30.04 in 10.0 mi SE 5.8 mph - N/A   Clear
10:58 PM 64.2 °F - 58.6 °F 82% 30.03 in 10.0 mi ESE 5.8 mph - N/A   Clear
11:58 PM 62.1 °F - 58.6 °F 89% 30.04 in 10.0 mi ESE 3.5 mph - N/A   Clear